Terminal Aerodrome Forecast
Issued by NWS Wakefield, VA

Home | Current Version | Previous Version | Text Only | Print | Product List | Glossary On
Versions: 1 2 3 4 5 6 7 8 9 10 11 12 13 14
000
FTUS41 KAKQ 241700
TAFRIC
TAF
KRIC 241727Z 2418/2518 34006KT P6SM SCT150
     FM250000 VRB02KT P6SM SCT250
     FM251300 17012KT P6SM SCT060 OVC150=

USA.gov is the U.S. government's official web portal to all federal, state and local government web resources and services.